This demonstration page uses our WeatherBlox Daily Observations layout. Learn more.

41.55636, -103.73856

Hourly Observations for February 18, 2019

Temp ( °F °C ) Dew Point ( °F °C ) Humidity (%) Winds ( mph kmh ) Pressure ( in mb ) Visibility ( mi km ) Precip ( " mm )
12:58 am 00:58 Cloudy 10 -12.2 0 -17.9 63 63 NNE 12 19 30.28 1026 10 16.0934 N/A
1:58 am 01:58 Cloudy 9 -13 -1 -18.4 64 64 N 14 22 30.32 1027 10 16.0934 N/A
2:58 am 02:58 Mostly Cloudy 7 -13.8 -2 -18.8 66 66 N 8 13 30.35 1028 10 16.0934 N/A
3:58 am 03:58 Mostly Cloudy 5 -15 -3 -19.4 69 69 NNE 13 20 30.36 1028 10 16.0934 N/A
4:58 am 04:58 Clear 2 -16.4 -4 -20 74 74 NNE 10 17 30.38 1029 10 16.0934 N/A
5:58 am 05:58 Partly Cloudy 0 -17.9 -5 -20.7 79 79 NNE 14 22 30.4 1030 10 16.0934 N/A
6:58 am 06:58 Cloudy -1 -18.1 -5 -20.8 80 80 N 13 20 30.42 1030 10 16.0934 N/A
7:58 am 07:58 Cloudy -1 -18.3 -6 -21.1 79 79 N 15 24 30.4 1030 10 16.0934 N/A
8:58 am 08:58 Cloudy -1 -18.1 -6 -21 78 78 N 8 13 30.41 1030 10 16.0934 N/A
9:58 am 09:58 Cloudy with Light Snow 0 -17.9 -6 -21.2 76 76 NE 8 13 30.41 1030 10 16.0934 N/A
10:58 am 10:58 Cloudy -1 -18.3 -7 -21.6 75 75 NNE 14 22 30.39 1029 10 16.0934 N/A
11:58 am 11:58 Cloudy with Light Snow Showers -1 -18.3 -7 -21.6 75 75 NNE 3 6 30.42 1030 10 16.0934 N/A
12:58 pm 12:58 Cloudy with Light Snow -1 -18.4 -7 -21.4 77 77 Calm 30.45 1031 4 6.43736 N/A
1:58 pm 13:58 Cloudy with Light Snow -1 -18.2 -6 -21.1 78 78 Calm 30.46 1032 9 14.48406 N/A
2:58 pm 14:58 Cloudy with Light Snow 1 -17.5 -4 -20.2 80 80 Calm 30.48 1032 10 16.0934 N/A
3:58 pm 15:58 Mostly Cloudy with Light Snow Showers 3 -16.2 -3 -19.3 77 77 SSE 3 6 30.48 1032 5 8.0467 N/A
4:58 pm 16:58 Mostly Cloudy with Light Snow Showers 5 -14.9 -1 -18.3 76 76 SW 6 9 30.49 1032 10 16.0934 N/A
5:58 pm 17:58 Mostly Cloudy 8 -13.3 1 -17.1 73 73 S 8 13 30.47 1032 10 16.0934 N/A
6:58 pm 18:58 Mostly Cloudy with Light Snow Showers 11 -11.5 3 -16.3 68 68 S 10 17 30.44 1031 10 16.0934 N/A
7:58 pm 19:58 Mostly Cloudy 14 -10.1 3 -16.1 62 62 SSE 10 17 30.4 1029 10 16.0934 N/A
8:58 pm 20:58 Mostly Cloudy 15 -9.5 4 -15.7 61 61 S 9 15 30.36 1028 10 16.0934 N/A
9:58 pm 21:58 Mostly Cloudy 16 -9.1 5 -15 63 63 S 12 19 30.35 1028 10 16.0934 N/A
10:58 pm 22:58 Mostly Cloudy with Light Snow Showers 15 -9.4 6 -14.7 66 66 SSE 15 24 30.35 1028 10 16.0934 N/A

Powered by AerisWeather